Time,TemperatureF,DewpointF,PressureIn,WindDirection,WindDirectionDegrees,WindSpeedMPH,WindSpeedGustMPH,Humidity,HourlyPrecipIn,Conditions,Clouds,dailyrainin,SoftwareType,DateUTC
2013-07-14 00:14:00,74.7,57.4,29.99,SW,225,1.6,-999.0,55,-99.99,,,0.00,Acu-Link.com,2013-07-14 06:14:00,
2013-07-14 00:29:00,74.3,58.6,29.99,West,270,2.2,-999.0,58,-99.99,,,0.00,Acu-Link.com,2013-07-14 06:29:00,
2013-07-14 00:44:00,73.9,58.7,29.99,WSW,247,1.1,-999.0,59,-99.99,,,0.00,Acu-Link.com,2013-07-14 06:44:00,
2013-07-14 01:00:00,73.9,58.7,29.98,NW,315,1.1,-999.0,59,-99.99,,,0.00,Acu-Link.com,2013-07-14 07:00:00,
2013-07-14 01:15:00,74.1,58.4,29.99,West,270,0.0,-999.0,58,-99.99,,,0.00,Acu-Link.com,2013-07-14 07:15:00,
2013-07-14 01:30:00,74.5,57.2,29.97,NW,315,2.2,-999.0,55,-99.99,,,0.00,Acu-Link.com,2013-07-14 07:30:00,
2013-07-14 01:45:00,74.5,56.7,29.96,WSW,247,2.2,-999.0,54,-99.99,,,0.00,Acu-Link.com,2013-07-14 07:45:00,
2013-07-14 02:00:00,75.2,56.9,29.96,West,270,2.7,-999.0,53,-99.99,,,0.00,Acu-Link.com,2013-07-14 08:00:00,
2013-07-14 02:16:00,75.4,57.0,29.96,West,270,3.1,-999.0,53,-99.99,,,0.00,Acu-Link.com,2013-07-14 08:16:00,
2013-07-14 02:31:00,75.0,56.7,29.96,SW,225,0.0,-999.0,53,-99.99,,,0.00,Acu-Link.com,2013-07-14 08:31:00,
2013-07-14 02:46:00,74.8,56.5,29.96,West,270,2.7,-999.0,53,-99.99,,,0.00,Acu-Link.com,2013-07-14 08:46:00,
2013-07-14 03:01:00,74.5,57.2,29.96,ENE,67,3.1,-999.0,55,-99.99,,,0.00,Acu-Link.com,2013-07-14 09:01:00,
2013-07-14 03:16:00,73.9,56.7,29.96,NNE,22,0.0,-999.0,55,-99.99,,,0.00,Acu-Link.com,2013-07-14 09:16:00,
2013-07-14 03:31:00,73.6,56.9,29.97,ENE,67,3.8,-999.0,56,-99.99,,,0.00,Acu-Link.com,2013-07-14 09:31:00,
2013-07-14 03:47:00,73.6,57.9,29.96,ENE,67,2.7,-999.0,58,-99.99,,,0.00,Acu-Link.com,2013-07-14 09:47:00,
2013-07-14 04:02:00,73.4,58.2,29.96,NW,315,3.8,-999.0,59,-99.99,,,0.00,Acu-Link.com,2013-07-14 10:02:00,
2013-07-14 04:17:00,72.7,58.9,29.96,NE,45,1.6,-999.0,62,-99.99,,,0.00,Acu-Link.com,2013-07-14 10:17:00,
2013-07-14 04:32:00,72.3,58.6,29.96,North,0,1.6,-999.0,62,-99.99,,,0.00,Acu-Link.com,2013-07-14 10:32:00,
2013-07-14 04:47:00,72.3,58.6,29.96,NNW,337,1.1,-999.0,62,-99.99,,,0.00,Acu-Link.com,2013-07-14 10:47:00,
2013-07-14 05:03:00,72.3,58.6,29.96,North,0,2.7,-999.0,62,-99.99,,,0.00,Acu-Link.com,2013-07-14 11:03:00,
2013-07-14 05:18:00,72.5,57.8,29.97,West,270,4.3,-999.0,60,-99.99,,,0.00,Acu-Link.com,2013-07-14 11:18:00,
2013-07-14 05:33:00,72.5,57.3,29.97,WNW,292,3.1,-999.0,59,-99.99,,,0.00,Acu-Link.com,2013-07-14 11:33:00,
2013-07-14 05:48:00,72.1,57.0,29.98,NE,45,2.7,-999.0,59,-99.99,,,0.00,Acu-Link.com,2013-07-14 11:48:00,
2013-07-14 06:03:00,71.8,56.7,29.99,NNW,337,3.8,-999.0,59,-99.99,,,0.00,Acu-Link.com,2013-07-14 12:03:00,
2013-07-14 06:19:00,71.2,56.6,29.99,WNW,292,2.7,-999.0,60,-99.99,,,0.00,Acu-Link.com,2013-07-14 12:19:00,
2013-07-14 06:34:00,70.7,56.6,29.99,WNW,292,1.6,-999.0,61,-99.99,,,0.00,Acu-Link.com,2013-07-14 12:34:00,
2013-07-14 06:49:00,71.6,57.4,29.99,WNW,292,2.7,-999.0,61,-99.99,,,0.00,Acu-Link.com,2013-07-14 12:49:00,
2013-07-14 07:04:00,75.4,58.1,29.99,NE,45,2.2,-999.0,55,-99.99,,,0.00,Acu-Link.com,2013-07-14 13:04:00,
2013-07-14 07:20:00,77.5,57.4,29.99,SW,225,2.2,-999.0,50,-99.99,,,0.00,Acu-Link.com,2013-07-14 13:20:00,
2013-07-14 07:35:00,78.4,57.1,29.99,ENE,67,1.1,-999.0,48,-99.99,,,0.00,Acu-Link.com,2013-07-14 13:35:00,
2013-07-14 07:50:00,80.4,57.1,30.00,WNW,292,1.6,-999.0,45,-99.99,,,0.00,Acu-Link.com,2013-07-14 13:50:00,
2013-07-14 08:05:00,82.9,59.4,29.99,South,180,1.6,-999.0,45,-99.99,,,0.00,Acu-Link.com,2013-07-14 14:05:00,
2013-07-14 08:20:00,83.3,58.4,30.00,ESE,112,4.7,-999.0,43,-99.99,,,0.00,Acu-Link.com,2013-07-14 14:20:00,
2013-07-14 08:36:00,83.3,58.4,29.99,South,180,2.7,-999.0,43,-99.99,,,0.00,Acu-Link.com,2013-07-14 14:36:00,
2013-07-14 08:51:00,82.6,57.8,30.00,ENE,67,3.8,-999.0,43,-99.99,,,0.00,Acu-Link.com,2013-07-14 14:51:00,
2013-07-14 09:06:00,83.1,57.6,29.99,ESE,112,5.1,-999.0,42,-99.99,,,0.00,Acu-Link.com,2013-07-14 15:06:00,
2013-07-14 09:21:00,85.8,57.2,29.99,NE,45,4.7,-999.0,38,-99.99,,,0.00,Acu-Link.com,2013-07-14 15:21:00,
2013-07-14 09:36:00,82.4,56.3,29.99,NW,315,2.2,-999.0,41,-99.99,,,0.00,Acu-Link.com,2013-07-14 15:36:00,
2013-07-14 09:52:00,84.0,56.4,29.99,East,90,4.3,-999.0,39,-99.99,,,0.00,Acu-Link.com,2013-07-14 15:52:00,
2013-07-14 10:07:00,85.3,56.0,29.98,ESE,112,5.1,-999.0,37,-99.99,,,0.00,Acu-Link.com,2013-07-14 16:07:00,
2013-07-14 10:22:00,86.2,55.3,29.97,NE,45,1.1,-999.0,35,-99.99,,,0.00,Acu-Link.com,2013-07-14 16:22:00,
2013-07-14 10:37:00,86.0,53.5,29.97,WSW,247,3.1,-999.0,33,-99.99,,,0.00,Acu-Link.com,2013-07-14 16:37:00,
2013-07-14 10:53:00,88.0,55.2,29.96,NNE,22,4.7,-999.0,33,-99.99,,,0.00,Acu-Link.com,2013-07-14 16:53:00,
2013-07-14 11:08:00,88.9,55.2,29.96,East,90,6.3,-999.0,32,-99.99,,,0.00,Acu-Link.com,2013-07-14 17:08:00,
2013-07-14 11:23:00,90.1,56.3,29.96,NE,45,6.3,-999.0,32,-99.99,,,0.00,Acu-Link.com,2013-07-14 17:23:00,
2013-07-14 11:38:00,90.5,55.7,29.96,WNW,292,2.7,-999.0,31,-99.99,,,0.00,Acu-Link.com,2013-07-14 17:38:00,
2013-07-14 11:53:00,93.0,56.0,29.95,South,180,3.1,-999.0,29,-99.99,,,0.00,Acu-Link.com,2013-07-14 17:53:00,
2013-07-14 12:09:00,93.2,55.2,29.93,ENE,67,4.3,-999.0,28,-99.99,,,0.00,Acu-Link.com,2013-07-14 18:09:00,
2013-07-14 12:24:00,94.1,56.0,29.93,NE,45,3.8,-999.0,28,-99.99,,,0.00,Acu-Link.com,2013-07-14 18:24:00,
2013-07-14 12:39:00,92.1,55.2,29.92,SE,135,1.1,-999.0,29,-99.99,,,0.00,Acu-Link.com,2013-07-14 18:39:00,
2013-07-14 12:54:00,95.2,54.8,29.91,NE,45,4.7,-999.0,26,-99.99,,,0.00,Acu-Link.com,2013-07-14 18:54:00,
2013-07-14 13:09:00,95.2,54.8,29.91,East,90,2.2,-999.0,26,-99.99,,,0.00,Acu-Link.com,2013-07-14 19:09:00,
2013-07-14 13:25:00,95.9,54.4,29.90,WSW,247,2.2,-999.0,25,-99.99,,,0.00,Acu-Link.com,2013-07-14 19:25:00,
2013-07-14 13:40:00,96.6,53.8,29.90,West,270,3.1,-999.0,24,-99.99,,,0.00,Acu-Link.com,2013-07-14 19:40:00,
2013-07-14 13:55:00,98.1,53.9,29.88,SSW,202,1.1,-999.0,23,-99.99,,,0.00,Acu-Link.com,2013-07-14 19:55:00,
2013-07-14 14:10:00,97.0,54.1,29.88,NNW,337,6.7,-999.0,24,-99.99,,,0.00,Acu-Link.com,2013-07-14 20:10:00,
2013-07-14 14:25:00,98.2,55.2,29.86,SSE,157,3.8,-999.0,24,-99.99,,,0.00,Acu-Link.com,2013-07-14 20:25:00,
2013-07-14 14:41:00,97.3,53.3,29.85,NNW,337,2.7,-999.0,23,-99.99,,,0.00,Acu-Link.com,2013-07-14 20:41:00,
2013-07-14 14:56:00,99.5,55.1,29.84,ESE,112,3.8,-999.0,23,-99.99,,,0.00,Acu-Link.com,2013-07-14 20:56:00,
2013-07-14 15:11:00,98.4,54.2,29.83,ESE,112,0.0,-999.0,23,-99.99,,,0.00,Acu-Link.com,2013-07-14 21:11:00,
2013-07-14 15:26:00,100.0,54.3,29.81,ESE,112,4.7,-999.0,22,-99.99,,,0.00,Acu-Link.com,2013-07-14 21:26:00,
2013-07-14 15:41:00,99.5,53.9,29.81,East,90,4.3,-999.0,22,-99.99,,,0.00,Acu-Link.com,2013-07-14 21:41:00,
2013-07-14 15:57:00,99.7,51.4,29.80,East,90,4.7,-999.0,20,-99.99,,,0.00,Acu-Link.com,2013-07-14 21:57:00,
2013-07-14 16:12:00,101.3,52.7,29.79,NNE,22,2.7,-999.0,20,-99.99,,,0.00,Acu-Link.com,2013-07-14 22:12:00,
2013-07-14 16:27:00,100.6,50.8,29.79,East,90,3.1,-999.0,19,-99.99,,,0.00,Acu-Link.com,2013-07-14 22:27:00,
2013-07-14 16:42:00,99.5,51.3,29.78,ESE,112,4.3,-999.0,20,-99.99,,,0.00,Acu-Link.com,2013-07-14 22:42:00,
2013-07-14 16:57:00,99.0,50.8,29.78,North,0,1.1,-999.0,20,-99.99,,,0.00,Acu-Link.com,2013-07-14 22:57:00,
2013-07-14 17:12:00,96.6,53.8,29.77,SSE,157,5.8,-999.0,24,-99.99,,,0.00,Acu-Link.com,2013-07-14 23:12:00,
2013-07-14 17:28:00,96.3,53.5,29.77,SE,135,3.8,-999.0,24,-99.99,,,0.00,Acu-Link.com,2013-07-14 23:28:00,
2013-07-14 17:43:00,97.5,54.6,29.77,ESE,112,3.8,-999.0,24,-99.99,,,0.00,Acu-Link.com,2013-07-14 23:43:00,
2013-07-14 17:58:00,99.1,53.6,29.76,SSW,202,3.1,-999.0,22,-99.99,,,0.00,Acu-Link.com,2013-07-14 23:58:00,
2013-07-14 18:13:00,91.0,57.0,29.77,East,90,11.4,-999.0,32,-99.99,,,0.00,Acu-Link.com,2013-07-15 00:13:00,
2013-07-14 18:29:00,85.6,55.6,29.78,East,90,9.4,-999.0,36,-99.99,,,0.00,Acu-Link.com,2013-07-15 00:29:00,
2013-07-14 18:44:00,77.9,59.9,29.82,SSE,157,11.4,-999.0,54,-99.99,,,0.01,Acu-Link.com,2013-07-15 00:44:00,
2013-07-14 18:59:00,74.3,61.8,29.85,ESE,112,8.3,-999.0,65,-99.99,,,0.08,Acu-Link.com,2013-07-15 00:59:00,
2013-07-14 19:14:00,73.6,61.1,29.87,North,0,5.1,-999.0,65,-99.99,,,0.14,Acu-Link.com,2013-07-15 01:14:00,
2013-07-14 19:29:00,71.4,63.4,29.90,WNW,292,4.3,-999.0,76,-99.99,,,0.15,Acu-Link.com,2013-07-15 01:29:00,
2013-07-14 19:45:00,70.0,63.9,29.89,NNE,22,3.8,-999.0,81,-99.99,,,0.20,Acu-Link.com,2013-07-15 01:45:00,
2013-07-14 20:00:00,69.8,63.7,29.90,SE,135,2.7,-999.0,81,-99.99,,,0.21,Acu-Link.com,2013-07-15 02:00:00,
2013-07-14 20:15:00,70.0,65.6,29.92,West,270,1.1,-999.0,86,-99.99,,,0.24,Acu-Link.com,2013-07-15 02:15:00,
2013-07-14 20:30:00,70.3,63.5,29.95,WNW,292,1.1,-999.0,79,-99.99,,,0.24,Acu-Link.com,2013-07-15 02:30:00,
2013-07-14 20:45:00,70.5,61.4,29.95,SE,135,8.9,-999.0,73,-99.99,,,0.25,Acu-Link.com,2013-07-15 02:45:00,
2013-07-14 21:01:00,69.8,61.5,29.94,ESE,112,8.3,-999.0,75,-99.99,,,0.26,Acu-Link.com,2013-07-15 03:01:00,
2013-07-14 21:16:00,68.9,61.7,29.96,ESE,112,4.7,-999.0,78,-99.99,,,0.26,Acu-Link.com,2013-07-15 03:16:00,
2013-07-14 21:31:00,67.8,63.1,30.01,SE,135,2.7,-999.0,85,-99.99,,,0.28,Acu-Link.com,2013-07-15 03:31:00,
2013-07-14 21:46:00,67.6,64.6,30.02,WSW,247,0.0,-999.0,90,-99.99,,,0.33,Acu-Link.com,2013-07-15 03:46:00,
2013-07-14 22:01:00,67.3,64.6,30.02,SSE,157,3.1,-999.0,91,-99.99,,,0.35,Acu-Link.com,2013-07-15 04:01:00,
2013-07-14 22:16:00,67.3,64.6,30.02,SSW,202,2.7,-999.0,91,-99.99,,,0.37,Acu-Link.com,2013-07-15 04:16:00,
2013-07-14 22:32:00,67.1,64.4,30.03,South,180,1.6,-999.0,91,-99.99,,,0.37,Acu-Link.com,2013-07-15 04:32:00,
2013-07-14 22:47:00,67.1,64.7,30.03,WSW,247,1.6,-999.0,92,-99.99,,,0.37,Acu-Link.com,2013-07-15 04:47:00,
2013-07-14 23:02:00,67.3,64.9,30.02,WSW,247,1.1,-999.0,92,-99.99,,,0.37,Acu-Link.com,2013-07-15 05:02:00,
2013-07-14 23:17:00,67.1,64.4,30.03,SSW,202,2.7,-999.0,91,-99.99,,,0.38,Acu-Link.com,2013-07-15 05:17:00,
2013-07-14 23:32:00,66.9,64.2,30.02,SSW,202,3.8,-999.0,91,-99.99,,,0.38,Acu-Link.com,2013-07-15 05:32:00,
2013-07-14 23:48:00,66.7,64.3,30.01,SW,225,0.0,-999.0,92,-99.99,,,0.39,Acu-Link.com,2013-07-15 05:48:00,